| time (UTC) | temp C | wind direction | speed KPH | gust KPH | rain 1hr cm | rain 24hr cm | rain mn cm | humidity % | barometer mb |
| 20260506105223 | 23 | 135 | 0.0 | 0.0 | 0.00 | 0.00 | 0.00 | 98 | |
| 20260506102219 | 23 | 123 | 1.6 | 1.6 | 0.00 | 0.00 | 0.00 | 97 | |
| 20260506095214 | 23 | 127 | 0.0 | 1.6 | 0.00 | 0.00 | 0.00 | 97 | |
| 20260506092211 | 23 | 142 | 0.0 | 1.6 | 0.00 | 0.00 | 0.00 | 97 | |
| 20260506085211 | 24 | 108 | 1.6 | 1.6 | 0.00 | 0.00 | 0.00 | 97 | |
| 20260506082208 | 24 | 119 | 1.6 | 3.2 | 0.00 | 0.00 | 0.00 | 97 | |
| 20260506072159 | 24 | 153 | 3.2 | 3.2 | 0.00 | 0.00 | 0.00 | 96 | |
| 20260506062154 | 24 | 133 | 1.6 | 3.2 | 0.00 | 0.00 | 0.00 | 95 | |
| 20260506042148 | 25 | 120 | 3.2 | 8.0 | 0.00 | 0.00 | 0.00 | 92 | |
| 20260506035149 | 25 | 175 | 1.6 | 3.2 | 0.00 | 0.00 | 0.00 | 91 | |
| 20260506032148 | 25 | 120 | 0.0 | 0.0 | 0.00 | 0.00 | 0.00 | 90 | |
| 20260506025148 | 25 | 86 | 1.6 | 3.2 | 0.00 | 0.00 | 0.00 | 89 | |
| 20260506022147 | 25 | 147 | 0.0 | 3.2 | 0.00 | 0.00 | 0.00 | 88 | |
| 20260506015142 | 25 | 92 | 1.6 | 1.6 | 0.00 | 0.00 | 0.00 | 88 | |
| 20260506012141 | 26 | 129 | 0.0 | 1.6 | 0.00 | 0.00 | 0.00 | 87 | |
| 20260506005136 | 26 | 86 | 1.6 | 4.8 | 0.00 | 0.00 | 0.00 | 85 | |
| 20260506002131 | 26 | 144 | 1.6 | 3.2 | 0.00 | 0.00 | 0.00 | 84 | |
| 20260505235131 | 27 | 40 | 3.2 | 9.7 | 0.00 | 0.00 | 0.00 | 82 | |
| 20260505232131 | 28 | 138 | 4.8 | 4.8 | 0.00 | 0.00 | 0.00 | 80 | |
| 20260505225131 | 28 | 123 | 4.8 | 8.0 | 0.00 | 0.00 | 0.00 | 79 | |
| 20260505222128 | 28 | 151 | 1.6 | 4.8 | 0.00 | 0.00 | 0.00 | 78 | |
| 20260505215124 | 29 | 72 | 3.2 | 8.0 | 0.00 | 0.00 | 0.00 | 77 | |
| 20260505212124 | 29 | 255 | 1.6 | 4.8 | 0.00 | 0.00 | 0.00 | 78 | |
| 20260505205124 | 29 | 187 | 4.8 | 9.7 | 0.00 | 0.00 | 0.00 | 77 | |
| 20260505202122 | 29 | 191 | 6.4 | 12.9 | 0.00 | 0.00 | 0.00 | 77 | |
| 20260505195122 | 29 | 123 | 6.4 | 16.1 | 0.00 | 0.00 | 0.00 | 77 | |
| 20260505192123 | 28 | 150 | 4.8 | 9.7 | 0.00 | 0.00 | 0.00 | 79 | |
| 20260505185120 | 28 | 96 | 8.0 | 9.7 | 0.00 | 0.00 | 0.00 | 81 | |
| 20260505182118 | 27 | 220 | 4.8 | 12.9 | 0.00 | 0.00 | 0.00 | 82 | |
| 20260505175115 | 27 | 129 | 8.0 | 11.3 | 0.00 | 0.00 | 0.00 | 85 | |
| 20260505172114 | 26 | 162 | 1.6 | 4.8 | 0.00 | 0.00 | 0.00 | 88 | |
| 20260505165114 | 26 | 107 | 1.6 | 9.7 | 0.00 | 0.00 | 0.00 | 86 | |
| 20260505162109 | 26 | 115 | 4.8 | 9.7 | 0.00 | 0.00 | 0.00 | 88 | |
| 20260505152104 | 25 | 88 | 1.6 | 12.9 | 0.00 | 0.00 | 0.00 | 90 | |
| 20260505122050 | 21 | 93 | 0.0 | 3.2 | 0.00 | 0.00 | 0.00 | 98 | |
| 20260505115045 | 21 | 127 | 0.0 | 0.0 | 0.00 | 0.00 | 0.00 | 98 | |
| 20260505112044 | 21 | 130 | 1.6 | 3.2 | 0.00 | 0.00 | 0.00 | 97 |